User: anonymous   Login
Location: Unspecified
(0.0000°N, 0.0000°E)
Time: 09:00:03
(UTC+02:00)
Language:

CZ-2C R/B - Orbit

View from above orbital plane
View from above orbital plane
View from above satellite
View from above satellite

Ground track
Ground track

The orbit data is extracted from the following two-line orbital elements,

1 28480U 04046B   15184.89017850  .00000088  00000-0  48797-4 0  9998
2 28480 098.1428 317.6339 0142506 172.8663 298.2769 14.25512825552469
Epoch (UTC): 03 July 2015 21:21:51
Eccentricity: 0.0142506
inclination: 98.1428°
perigee height: 704 km
apogee height: 909 km
right ascension of ascending node: 317.6339°
argument of perigee: 172.8663°
revolutions per day: 14.25512825
mean anomaly at epoch: 298.2769°
orbit number at epoch: 55246

The dashed part of the orbit path shows where the satellite is in the earth's shadow,  

DLR